Location: ???? ??
(36.0534°N, 43.5630°E)
Time: 06:58:08
(UTC+00:00)

Cosmos 2237 Rocket - Pass Details

Date: 18 September 2019
Orbit: 833 x 852 km, 71.0° (Epoch: 18 October)

Event Time Altitude Azimuth Distance (km) Brightness Sun altitude
Rises 18:03:56 0° 329° (NNW) 3,421 6.2 -34.3°
Reaches altitude 10° 18:06:31 10° 322° (NW) 2,482 5.4 -34.7°
Enters shadow 18:10:52 37° 277° (W) 1,305 3.5 -35.4°
